Overview Statistics Trail Chart Weather Telemetry Raw packets
 

This is the latest recevied weather packets stored in our database for station/object HG5CJW-10. If no packets are shown the sender has not sent any weather packets the latest 10 day(s).

<< 10 11 12 13 14 15 16 >>
Time Temp. Humidity Pressure Rain* Wind** Luminosity Snow
1788383935 22.78° C 45% 1038.7 hPa - - - -
1788383035 22.78° C 44% 1038.8 hPa - - - -
1788382135 22.78° C 43% 1039 hPa - - - -
1788381235 23.33° C 46% 1038.6 hPa - - - -
1788380335 23.33° C 45% 1038.5 hPa - - - -
1788379435 23.89° C 45% 1038.5 hPa - - - -
1788377635 23.89° C 44% 1038.1 hPa - - - -
1788376729 24.44° C 44% 1038.4 hPa - - - -
1788375829 24.44° C 43% 1038.4 hPa - - - -
1788374929 25° C 43% 1038.5 hPa - - - -
1788374029 25° C 43% 1038.5 hPa - - - -
1788373129 25.56° C 42% 1038.3 hPa - - - -
1788372229 25.56° C 42% 1038.3 hPa - - - -
1788371329 25.56° C 42% 1037.3 hPa - - - -
1788370429 26.11° C 41% 1038.1 hPa - - - -
1788369529 26.11° C 41% 1038.1 hPa - - - -
1788368629 26.67° C 41% 1038 hPa - - - -
1788367729 26.67° C 40% 1038 hPa - - - -
1788366829 26.67° C 40% 1037.9 hPa - - - -
1788365929 26.67° C 40% 1038 hPa - - - -
1788365029 26.67° C 40% 1038.1 hPa - - - -
1788364129 26.11° C 40% 1037.6 hPa - - - -
1788363250 26.67° C 40% 1038.2 hPa - - - -
1788362323 26.67° C 40% 1038.3 hPa - - - -
1788361423 26.67° C 39% 1038.3 hPa - - - -

* Rain since midnight (hover to see other rain measurements)
** Current wind speed in m/s (hover to see current wind gust speed)